Regional Weather Roundup
Issued by NWS

Home | Current Version | Previous Version | Text Only | Print | Product List | Glossary Off
Versions: 1 2 3 4 5 6 7 8 9 10 11 12 13 14 15 16 17 18 19 20 21 22 23 24 25 26 27 28 29 30 31 32 33 34 35 36 37 38 39 40 41 42 43 44 45 46 47 48 49 50

000
ASUS43 KDMX 010804
RWRIA

WEATHER ROUNDUP FOR IOWA
NATIONAL WEATHER SERVICE DES MOINES IA
  ISSUED BY NWS QUAD CITIES IA IL
200 AM CST SUN MAR 01 2015

NOTE: "FAIR" INDICATES FEW OR NO CLOUDS BELOW 12,000 FEET WITH NO
SIGNIFICANT WEATHER AND/OR OBSTRUCTIONS TO VISIBILITY.

* - THESE STATIONS ARE NOT NWS STATIONS...THUS NOT UNDER NWS
QUALITY CONTROL.  THEY ALSO DO NOT REPORT WEATHER SUCH
AS PRECIPITATION OR FOG.

IAZ001>003-012>014-020>022-031>034-043>046-010900-
   NORTHWEST IOWA

CITY           SKY/WX    TMP DP  RH WIND       PRES   REMARKS
CARROLL *      MOCLDY    14  12  92 SW7       30.33S WCI   4
CHEROKEE *     SUNNY     14  13  97 S8        30.31S WCI   3
DENNISON *     MOCLDY    14  14 100 CALM      30.32R
LE MARS *      CLEAR     14  12  92 S5        30.31R WCI   6
ORANGE CITY *  CLEAR     14  10  85 SW7       30.27S WCI   4
SHELDON *      PTCLDY    14  12  92 S9G16     30.26S WCI   2
SIOUX CITY     CLEAR     18  12  77 S8        30.32S WCI   8
SPENCER        CLEAR     10   6  84 S9        30.28S WCI  -3
STORM LAKE *   PTCLDY    12   9  85 SW10      30.29F WCI  -1
$$

IAZ055>058-069>071-079>083-090>094-010900-
   SOUTHWEST IOWA

CITY           SKY/WX    TMP DP  RH WIND       PRES   REMARKS
ATLANTIC *     CLOUDY    21  16  79 SW9       30.34S WCI  11
AUDUBON *      FLURRIES  19  16  86 S6        30.33S WCI  11
CLARINDA *     CLOUDY    21  19  93 CALM      30.39S
COUNCIL BLFS * CLOUDY    21  18  86 W9        30.33S WCI  11
CRESTON *      CLOUDY    21  16  79 W7        30.35S WCI  13
HARLAN *       CLOUDY    21  21 100 SW7       30.37S WCI  13
LAMONI         CLOUDY    19  17  92 CALM      30.35S
RED OAK *      CLOUDY    21  18  86 SW5       30.36F WCI  15
SHENANDOAH *   CLOUDY    23  18  80 SW5       30.37F WCI  17
$$

IAZ047>049-059>061-072>074-084-010900-
   CENTRAL IOWA

CITY           SKY/WX    TMP DP  RH WIND       PRES   REMARKS
AMES           CLOUDY    18  15  88 S8        30.36S WCI   8
ANKENY *       CLOUDY    19  16  86 CALM      30.37F
BOONE *        CLOUDY    19  18  93 S3        30.33S
CHARITON *     CLOUDY    18  16  93 CALM      30.37F
DES MOINES     FLURRIES  20  16  84 S7        30.37S WCI  11
GRINNELL *     FLURRIES  14  13  92 SE5       30.38S WCI   7
KNOXVILLE *    CLOUDY    18  14  86 S6        30.37S WCI   9
MARSHALLTOWN   CLOUDY    16  13  88 S7        30.36S WCI   6
NEWTON *       CLOUDY    16  14  93 CALM      30.38S
PELLA *        FLURRIES  17  17  99 S3        30.39F
PERRY *          N/A     21  19  91 S8        30.35R WCI  11
$$

IAZ004>006-015-016-023>025-035-036-010900-
   NORTH CENTRAL IOWA

CITY           SKY/WX    TMP DP  RH WIND       PRES   REMARKS
ALGONA *       MOCLDY     9   7  92 S10       30.32S FOG     WCI  -6
CLARION *      PTCLDY    10  10 100 S9        30.33S WCI  -2
ESTHERVILLE    CLEAR     10   8  92 S12       30.27S WCI  -5
FORT DODGE *   CLEAR     14  10  85 S6        30.33F WCI   5
MASON CITY     PTCLDY     8   5  87 S6        30.34R WCI  -2
FOREST CITY *  FAIR       9   5  85 S6        30.32R WCI  -1
WEBSTER CITY * PTCLDY    10  10 100 S7        30.31F FOG     WCI   0
IOWA FALLS *   CLOUDY    16  13  90 S8        30.34F WCI   5
$$

IAZ007>011-017>019-026>030-037>042-050>054-066-010900-
   NORTHEAST IOWA

CITY           SKY/WX    TMP DP  RH WIND       PRES   REMARKS
CEDAR RAPIDS   FOG       10   8  92 S3        30.39S VSB 3/4
CHARLES CITY * CLOUDY    12  10  92 S10       30.35S WCI  -1
CLINTON *      PTCLDY     7   3  85 CALM      30.44S
DECORAH *      LGT SNOW  10   7  85 VRB5      30.34S WCI   2
DUBUQUE        CLOUDY    11   8  88 SW6       30.38F FOG     WCI   1
MONTICELLO *   CLOUDY    10   9  92 CALM      30.41R
OELWEIN *      CLOUDY    10   7  85 S7        30.37S FOG     WCI   0
WATERLOO       CLOUDY    13  11  92 S5        30.37S FOG     WCI   5
$$

IAZ064-065-067-068-078-010900-
   EAST CENTRAL IOWA

CITY           SKY/WX    TMP DP  RH WIND       PRES   REMARKS
DAVENPORT      FOG        6   2  83 NE3       30.42R VSB 1/4
IOWA CITY      CLOUDY    12  10  92 CALM      30.43S FOG
MT. PLEASANT * FOG        6   3  86 CALM      30.40F VSB 3/4
MUSCATINE *    FOG        3   0  85 CALM      30.44R VSB<1/4
QUAD CITIES    FAIR       3  -1  83 CALM      30.42S
$$

IAZ062-063-075>077-085>089-095>099-010900-
   SOUTHEAST IOWA

CITY           SKY/WX    TMP DP  RH WIND       PRES   REMARKS
BURLINGTON     CLOUDY    19  17  92 CALM      30.40S
FAIRFIELD *    HAZE       9   3  78 N5        30.40F VSB<1/4 WCI   0
FORT MADISON * CLOUDY    19  18  93 CALM      30.40F
KEOKUK *       FLURRIES  21  19  93 CALM      30.39S
OSKALOOSA *    CLOUDY    12  10  92 CALM      30.40F
CENTERVILLE *  PTSUNNY   10  10 100 CALM      30.38S
OTTUMWA        CLOUDY    12   8  84 CALM      30.39F FOG
WASHINGTON *   FOG       10  10 100 CALM      30.41S VSB<1/4
$$

ABBREVIATIONS USED IN REMARKS
   TC - TEMPERATURES IN CELSIUS
  WCI - WIND CHILL INDEX
   HX - HEAT INDEX
  VSB - VISIBILITY
$$


USA.gov is the U.S. government's official web portal to all federal, state and local government web resources and services.